Location: Unspecified
(0.0000°N, 0.0000°E)
Time: 23:14:15
(UTC+00:00)

CORVUS BC2 - Visible Passes

Search period start: 06 June 2023 00:00
Search period end: 16 June 2023 00:00
Orbit: 578 x 589 km, 97.4° (Epoch: 06 June)

Date Brightness Start Highest point End Pass type
(mag) Time Alt. Az. Time Alt. Az. Time Alt. Az.
06 Jun ? 18:46:22 10° NNE 18:50:27 67° E 18:54:32 10° S visible
07 Jun ? 18:52:17 10° NNE 18:56:24 84° E 19:00:31 10° S visible
08 Jun ? 18:58:16 10° N 19:02:22 78° W 19:06:28 10° SSW visible
09 Jun ? 19:04:16 10° N 19:08:19 62° W 19:12:22 10° SSW visible
10 Jun ? 19:10:18 10° N 19:14:16 49° W 19:18:14 10° SSW visible
11 Jun ? 19:16:23 10° N 19:20:12 39° W 19:24:03 10° SSW visible
12 Jun ? 19:22:29 10° NNW 19:26:09 32° W 19:29:49 10° SW visible
13 Jun ? 19:28:39 10° NNW 19:32:05 26° W 19:35:31 10° SW visible
14 Jun ? 19:34:54 10° NNW 19:38:01 21° W 19:41:08 10° SW visible
15 Jun ? 19:41:13 10° NW 19:43:56 17° WNW 19:46:40 10° WSW visible
